Вернуться в каталог

COSMOS 1140

АктивенВоенныеLEO
NORAD 11573·PAYLOAD·🇷🇺 Russia

Запущен Oct 11, 1979 с Plesetsk Cosmodrome

Loading…

Ближайшие Пролёты (ближайшие 24 часа)

TLE

СвежийSource: Space-Track

Эпоха: Sep 14, 2026, 10:27 UTC

1 11573U 79089A   26257.43559666  .00000051  00000-0  25691-4 0  9999
2 11573  74.0642 262.5162 0016149 338.6653  21.3825 14.37639156457687

Отслеживайте COSMOS 1140 в реальном времени с AllMySat

Download on the App Store